Latest Weather Observations for Clermont Airport

IDQ60801

Issued at 8:02 pm EST Thursday 29 January 2015 (issued every 30 minutes, with the page automatically refreshed every 10 minutes)

About weather observations | Map of weather stations | Latest weather observations for QLD | Other Formats
Station Details ID: 035124 Name: CLERMONT AIRPORT Lat: -22.78 Lon: 147.62 Height: 270.27 m
Data from the previous 72 hours. | See also: Recent months at Clermont Airport
Date/Time
EST
Temp
°C
App
Temp
°C
Dew
Point
Rel
Hum
%
Delta-T
°C
Wind Press
QNH
hPa
Press
MSL
hPa
Rain
since 9 am
mm
Dir
 
Spd
km/h
Gust
km/h
Spd
kts
Gust
kts
29/08:00pm 25.3 27.3 19.2 69 4.0 ESE 7 15 4 8 1007.4 1005.5 0.0
29/07:30pm 26.0 28.4 20.1 70 3.9 E 7 15 4 8 1007.3 1005.4 0.0
29/07:00pm 26.7 27.7 20.3 68 4.2 ESE 15 22 8 12 1006.8 1004.9 0.0
29/06:30pm 28.7 30.4 20.2 60 5.6 ESE 11 17 6 9 1006.4 1004.5 0.0
29/06:00pm 29.3 30.9 19.9 57 6.2 ESE 11 19 6 10 1005.9 1004.0 0.0
29/05:30pm 29.9 31.6 20.2 56 6.5 ESE 11 20 6 11 1005.4 1003.5 0.0
29/05:00pm 29.9 32.0 20.2 56 6.5 ESE 9 17 5 9 1005.0 1003.1 0.0
29/04:30pm 30.4 31.9 20.6 55 6.6 SE 13 22 7 12 1005.2 1003.3 0.0
29/04:00pm 29.4 31.2 20.3 58 6.1 SE 11 20 6 11 1005.2 1003.3 0.0
29/03:30pm 30.2 31.9 20.2 55 6.7 SE 11 20 6 11 1005.2 1003.3 0.0
29/03:00pm 29.6 31.3 20.2 57 6.3 ESE 11 17 6 9 1005.5 1003.6 0.0
29/02:30pm 28.9 30.6 20.1 59 5.8 SE 11 17 6 9 1005.8 1003.9 0.0
29/02:00pm 29.0 30.8 21.2 62 5.3 ESE 13 20 7 11 1006.0 1004.2 0.0
29/01:30pm 28.3 30.6 21.3 65 4.7 SE 11 17 6 9 1006.1 1004.3 0.0
29/01:00pm 27.8 29.6 21.1 67 4.5 ESE 13 19 7 10 1006.5 1004.6 0.0
29/12:30pm 27.4 29.7 20.7 67 4.5 ESE 9 15 5 8 1006.8 1004.9 0.0
29/12:00pm 27.6 30.6 21.9 71 3.9 ESE 9 17 5 9 1007.2 1005.3 0.0
29/11:30am 26.4 27.5 21.2 73 3.5 SE 17 22 9 12 1007.4 1005.5 0.0
29/11:00am 25.8 27.2 21.0 75 3.2 SE 15 24 8 13 1007.7 1005.8 0.0
29/10:30am 26.5 28.2 21.7 75 3.2 SE 15 26 8 14 1007.7 1005.8 0.0
29/10:00am 25.2 27.2 20.7 76 3.0 ESE 11 22 6 12 1007.9 1006.0 0.0
29/09:30am 24.7 27.2 21.0 80 2.5 SE 9 17 5 9 1007.9 1006.0 0.0
29/09:00am 24.2 26.6 20.9 82 2.2 ESE 9 19 5 10 1007.9 1006.0 9.8
29/08:30am 23.8 26.2 20.9 84 1.9 ESE 9 19 5 10 1007.9 1006.0 9.8
29/08:00am 23.9 26.1 21.2 85 1.8 ESE 11 17 6 9 1007.5 1005.6 9.8
29/07:30am 23.1 25.0 20.6 86 1.6 ESE 11 20 6 11 1007.3 1005.4 9.8
29/07:00am 22.6 24.9 20.7 89 1.3 SE 9 15 5 8 1007.2 1005.3 9.8
29/06:30am 22.2 24.8 20.5 90 1.1 SE 7 15 4 8 1006.7 1004.8 9.8
29/06:00am 21.6 23.7 20.2 92 0.9 SE 9 15 5 8 1006.0 1004.2 9.8
29/05:30am 21.7 23.8 20.2 91 1.0 SE 9 17 5 9 1005.6 1003.7 9.8
29/05:00am 22.0 24.2 20.5 91 1.0 SSE 9 15 5 8 1005.2 1003.3 9.8
29/04:30am 22.3 24.6 20.6 90 1.1 SE 9 17 5 9 1005.0 1003.1 9.8
29/04:00am 22.6 25.2 21.2 92 0.9 SSE 9 13 5 7 1005.0 1003.1 9.8
29/03:30am 22.6 25.3 21.4 93 0.8 SSE 9 15 5 8 1005.1 1003.2 9.8
29/03:00am 22.4 24.7 21.4 94 0.7 SE 11 17 6 9 1004.5 1002.6 9.8
29/02:30am 22.6 25.7 21.4 93 0.8 SE 7 15 4 8 1004.8 1002.9 9.8
29/02:00am 22.7 26.0 21.5 93 0.8 ESE 6 11 3 6 1005.1 1003.2 9.8
29/01:30am 22.8 26.8 21.4 92 0.9 E 2 4 1 2 1005.4 1003.5 9.4
29/01:00am 22.9 26.2 21.4 91 1.0 SSE 6 7 3 4 1005.2 1003.3 8.6
29/12:30am 23.2 26.2 21.3 89 1.3 SE 7 11 4 6 1004.8 1002.9 8.2
29/12:00am 23.3 26.3 21.2 88 1.4 SE 7 11 4 6 1005.1 1003.2 8.2
 
Date/Time
EST
Temp
°C
App
Temp
°C
Dew
Point
Rel
Hum
%
Delta-T
°C
Wind Press
QNH
hPa
Press
MSL
hPa
Rain
since 9 am
mm
Dir
 
Spd
km/h
Gust
km/h
Spd
kts
Gust
kts
28/11:30pm 23.3 26.5 21.6 90 1.1 SSE 7 11 4 6 1005.3 1003.4 8.2
28/11:00pm 23.2 26.9 21.5 90 1.1 ESE 4 7 2 4 1005.4 1003.5 8.2
28/10:30pm 23.2 26.3 21.5 90 1.1 ESE 7 15 4 8 1005.3 1003.4 8.2
28/10:00pm 22.8 25.9 21.4 92 0.9 SE 7 11 4 6 1005.4 1003.5 8.2
28/09:30pm 22.2 25.1 20.7 91 1.0 SSE 6 11 3 6 1005.3 1003.4 8.2
28/09:00pm 21.9 23.5 20.0 89 1.2 SE 11 19 6 10 1005.4 1003.5 8.2
28/08:30pm 22.5 25.1 20.4 88 1.4 SE 7 19 4 10 1005.3 1003.4 8.2
28/08:00pm 22.9 24.6 21.0 89 1.3 SSE 13 19 7 10 1005.2 1003.3 8.2
28/07:30pm 23.3 26.6 21.9 92 0.9 ENE 7 11 4 6 1004.7 1002.8 8.0
28/07:00pm 23.5 24.3 21.4 88 1.4 SW 19 30 10 16 1004.2 1002.3 7.2
28/06:30pm 26.9 28.1 20.7 69 4.1 SE 15 32 8 17 1002.3 1000.4 5.0
28/06:00pm 27.9 30.2 21.4 67 4.4 SE 11 17 6 9 1001.3 999.4 5.0
28/05:30pm 28.0 32.0 23.8 78 2.9 ENE 9 17 5 9 1001.0 999.1 5.0
28/05:00pm 26.7 29.1 21.5 73 3.5 SSW 11 19 6 10 1000.8 998.9 4.2
28/04:30pm 30.2 30.1 19.6 53 7.0 SSW 19 30 10 16 1000.0 998.1 0.0
28/04:00pm 33.5 35.3 19.6 44 9.3 SSE 9 17 5 9 999.4 997.5 0.0
28/03:30pm 33.3 36.6 20.8 48 8.5 ENE 4 9 2 5 999.9 998.0 0.0
28/03:00pm 33.6 36.5 20.7 46 8.8 E 6 9 3 5 1000.2 998.3 0.0
28/02:30pm 32.3 34.8 20.2 48 8.1 SE 7 15 4 8 1000.6 998.7 0.0
28/02:00pm 32.6 34.6 18.8 44 9.1 NE 6 13 3 7 1000.8 998.9 0.0
28/01:30pm 32.7 35.6 20.6 49 8.2 NNW 6 9 3 5 1001.2 999.3 0.0
28/01:00pm 31.7 34.1 20.0 50 7.8 NNW 7 19 4 10 1001.7 999.8 0.0
28/12:30pm 32.3 35.1 20.9 51 7.7 NNE 7 11 4 6 1001.9 1000.0 0.0
28/12:00pm 31.5 33.0 19.8 49 7.8 N 11 17 6 9 1002.2 1000.3 0.0
28/11:30am 30.7 32.9 19.7 52 7.3 NNE 7 13 4 7 1002.7 1000.8 0.0
28/11:00am 30.1 33.1 20.9 57 6.2 NNE 6 11 3 6 1003.1 1001.2 0.0
28/10:30am 29.9 32.6 21.3 60 5.8 N 9 17 5 9 1003.5 1001.6 0.0
28/10:00am 29.1 31.6 21.1 62 5.4 NNW 9 20 5 11 1003.4 1001.5 0.0
28/09:30am 28.4 31.4 20.9 64 5.0 ENE 6 11 3 6 1003.5 1001.6 0.0
28/09:00am 27.2 30.2 21.9 73 3.6 NNE 9 13 5 7 1003.5 1001.6 0.0
28/08:30am 27.0 29.6 22.0 74 3.4 NNE 11 19 6 10 1003.3 1001.4 0.0
28/08:00am 26.2 29.9 22.5 80 2.5 NNE 7 13 4 7 1003.4 1001.5 0.0
28/07:30am 25.5 29.3 22.4 83 2.1 NE 6 9 3 5 1003.0 1001.1 0.0
28/07:00am 24.6 28.8 22.5 88 1.4 NNE 4 7 2 4 1002.8 1000.9 0.0
28/06:30am 24.3 28.9 22.4 89 1.3 E 2 6 1 3 1002.6 1000.6 0.0
28/06:00am 24.1 28.7 22.4 90 1.2 E 2 6 1 3 1002.3 1000.4 0.0
28/05:30am 23.9 28.0 22.2 90 1.1 SE 4 6 2 3 1002.1 1000.2 0.0
28/05:00am 23.7 28.0 22.0 90 1.1 SE 2 4 1 2 1001.7 999.8 0.0
28/04:30am 23.6 27.9 21.9 90 1.1 SE 2 4 1 2 1001.3 999.4 0.0
28/04:00am 23.3 27.0 21.4 89 1.3 SE 4 6 2 3 1001.2 999.3 0.0
28/03:30am 23.4 27.3 21.1 87 1.5 SE 2 4 1 2 1001.3 999.4 0.0
28/03:00am 23.6 27.5 21.1 86 1.7 ESE 2 6 1 3 1001.6 999.7 0.0
28/02:30am 23.8 27.4 21.3 86 1.7 SSE 4 6 2 3 1001.7 999.8 0.0
28/02:00am 24.0 27.4 20.9 83 2.1 ESE 4 7 2 4 1001.9 1000.0 0.0
28/01:30am 24.1 27.2 21.0 83 2.1 SE 6 9 3 5 1002.1 1000.2 0.0
28/01:00am 23.9 26.8 20.6 82 2.2 ESE 6 7 3 4 1002.3 1000.4 0.0
28/12:30am 23.2 26.8 20.5 85 1.8 ENE 2 4 1 2 1002.7 1000.8 0.0
28/12:00am 24.4 27.6 20.5 79 2.6 SE 4 6 2 3 1003.3 1001.4 0.0
 
Date/Time
EST
Temp
°C
App
Temp
°C
Dew
Point
Rel
Hum
%
Delta-T
°C
Wind Press
QNH
hPa
Press
MSL
hPa
Rain
since 9 am
mm
Dir
 
Spd
km/h
Gust
km/h
Spd
kts
Gust
kts
27/11:30pm 24.4 27.6 20.5 79 2.6 SE 4 11 2 6 1003.7 1001.8 0.0
27/11:00pm 24.8 28.3 20.3 76 3.0 E 2 6 1 3 1003.8 1001.9 0.0
27/10:30pm 25.3 28.1 20.5 75 3.2 SSE 6 7 3 4 1003.8 1001.9 0.0
27/10:00pm 25.8 28.3 19.9 70 3.9 ESE 6 7 3 4 1003.5 1001.6 0.0
27/09:30pm 26.3 27.9 19.2 65 4.6 E 9 15 5 8 1003.5 1001.6 0.0
27/09:00pm 26.4 29.6 20.5 70 3.9 E 4 15 2 8 1003.3 1001.4 0.0
27/08:30pm 25.7 30.5 22.2 81 2.4 CALM 0 0 0 0 1002.9 1001.0 0.0
27/08:00pm 26.4 31.0 21.8 76 3.1 CALM 0 0 0 0 1002.7 1000.8 0.0
27/07:30pm 27.1 31.3 20.9 69 4.1 CALM 0 0 0 0 1002.1 1000.2 0.0
27/07:00pm 27.8 31.3 21.1 67 4.5 NE 4 7 2 4 1001.9 1000.0 0.0
27/06:30pm 28.4 31.1 20.7 63 5.1 ENE 7 13 4 7 1001.9 1000.0 0.0
27/06:00pm 28.6 31.1 21.1 64 5.1 ENE 9 20 5 11 1001.8 999.9 0.0
27/05:30pm 28.8 30.3 21.3 64 5.1 E 15 26 8 14 1001.8 999.9 0.0
27/05:00pm 28.4 29.8 20.4 62 5.3 ESE 13 24 7 13 1001.6 999.7 0.0
27/04:30pm 28.4 30.3 21.4 66 4.7 E 13 22 7 12 1000.5 998.6 0.0
27/04:00pm 27.2 28.5 21.7 72 3.7 E 17 32 9 17 1001.2 999.3 0.0
27/03:30pm 29.3 30.1 20.7 59 5.8 S 17 44 9 24 1000.6 998.7 0.0
27/03:00pm 34.4 37.5 21.4 46 8.9 ENE 7 20 4 11 1000.2 998.3 0.0
27/02:30pm 34.9 36.9 20.8 43 9.6 NNE 11 22 6 12 1000.6 998.7 0.0
27/02:00pm 34.1 36.9 20.8 45 9.1 E 7 17 4 9 1001.3 999.4 0.0
27/01:30pm 34.1 37.2 22.2 50 8.2 NE 9 20 5 11 1001.8 999.9 0.0
27/01:00pm 34.5 38.6 23.2 51 7.9 N 7 19 4 10 1002.6 1000.6 0.0
27/12:30pm 34.0 37.0 22.7 51 7.9 NNE 11 24 6 13 1003.0 1001.1 0.0
27/12:00pm 33.4 37.0 23.1 54 7.2 NNE 9 17 5 9 1003.4 1001.5 0.0
27/11:30am 33.3 37.0 23.3 55 7.0 ENE 9 20 5 11 1003.7 1001.8 0.0
27/11:00am 31.8 34.6 21.6 54 7.0 ENE 9 15 5 8 1004.1 1002.2 0.0
27/10:30am 32.4 35.9 22.8 57 6.7 ENE 9 17 5 9 1004.3 1002.4 0.0
27/10:00am 31.7 35.4 23.2 60 5.9 ENE 9 17 5 9 1004.6 1002.7 0.0
27/09:30am 31.0 34.4 23.4 64 5.3 NNE 11 17 6 9 1004.8 1002.9 0.0
27/09:00am 30.1 32.5 23.0 65 4.9 N 15 20 8 11 1004.9 1003.0 0.0
27/08:30am 29.5 32.5 22.7 67 4.7 NE 11 19 6 10 1004.9 1003.0 0.0
27/08:00am 28.4 31.7 22.6 71 4.0 NNE 9 17 5 9 1004.9 1003.0 0.0
27/07:30am 26.8 31.2 22.8 79 2.7 NE 4 7 2 4 1004.5 1002.6 0.0
27/07:00am 24.8 29.5 21.9 84 2.0 CALM 0 0 0 0 1004.4 1002.5 0.0
27/06:30am 25.3 29.9 21.8 81 2.4 CALM 0 0 0 0 1004.0 1002.1 0.0
27/06:00am 24.3 28.8 21.6 85 1.8 CALM 0 0 0 0 1003.7 1001.8 0.0
27/05:30am 23.9 28.5 21.8 88 1.4 CALM 0 0 0 0 1003.3 1001.4 0.0
27/05:00am 24.1 28.3 21.8 87 1.5 NNE 2 4 1 2 1003.1 1001.2 0.0
27/04:30am 24.3 27.8 21.8 86 1.7 ENE 6 7 3 4 1002.9 1001.0 0.0
27/04:00am 24.5 28.4 21.8 85 1.8 NNE 4 6 2 3 1002.7 1000.8 0.0
27/03:30am 25.0 28.5 21.9 83 2.1 NE 6 9 3 5 1002.6 1000.6 0.0
27/03:00am 24.9 28.5 22.0 84 2.0 NNE 6 9 3 5 1002.6 1000.6 0.0
27/02:30am 25.2 29.1 21.9 82 2.2 ENE 4 6 2 3 1002.8 1000.9 0.0
27/02:00am 25.3 29.3 22.0 82 2.2 ENE 4 7 2 4 1002.8 1000.9 0.0
27/01:30am 26.5 31.2 21.9 76 3.1 CALM 0 4 0 2 1003.1 1001.2 0.0
27/01:00am 25.9 29.6 22.2 80 2.5 NNW 6 7 3 4 1003.3 1001.4 0.0
27/12:30am 26.4 30.1 22.5 79 2.7 NNW 7 13 4 7 1003.5 1001.6 0.0
27/12:00am 26.0 30.8 22.9 83 2.1 NNE 2 2 1 1 1004.1 1002.2 0.0
 
Date/Time
EST
Temp
°C
App
Temp
°C
Dew
Point
Rel
Hum
%
Delta-T
°C
Wind Press
QNH
hPa
Press
MSL
hPa
Rain
since 9 am
mm
Dir
 
Spd
km/h
Gust
km/h
Spd
kts
Gust
kts
26/11:30pm 25.9 30.4 23.0 84 2.0 NNE 4 6 2 3 1004.5 1002.6 0.0
26/11:00pm 27.1 32.4 23.1 79 2.8 CALM 0 0 0 0 1004.7 1002.8 0.0
26/10:30pm 27.0 32.2 22.8 78 2.9 CALM 0 0 0 0 1004.9 1003.0 0.0
26/10:00pm 27.4 32.8 23.2 78 2.9 CALM 0 2 0 1 1004.8 1002.9 0.0
26/09:30pm 27.7 33.5 23.9 80 2.6 CALM 0 0 0 0 1004.6 1002.7 0.0
26/09:00pm 29.0 32.9 22.5 68 4.5 N 6 6 3 3 1004.2 1002.3 0.0
26/08:30pm 29.6 33.7 22.3 65 5.0 N 4 6 2 3 1004.3 1002.4 0.0

Other Formats:

Comma delimited format used in spreadsheet applications
http://www.bom.gov.au/fwo/IDQ60801/IDQ60801.94395.axf

JavaScript Object Notation format (JSON) in row-major order
http://www.bom.gov.au/fwo/IDQ60801/IDQ60801.94395.json